Year,Month,Day,Hour,Minute,Value (Times are PST for temperature in C)
2008,04,24,00,00,3.70
2008,04,24,00,01,3.70
2008,04,24,00,02,3.70
2008,04,24,00,03,3.70
2008,04,24,00,04,3.70
2008,04,24,00,05,3.70
2008,04,24,00,06,3.60
2008,04,24,00,07,3.60
2008,04,24,00,08,3.60
2008,04,24,00,09,3.60
2008,04,24,00,10,3.60
2008,04,24,00,11,3.60
2008,04,24,00,12,3.50
2008,04,24,00,13,3.50
2008,04,24,00,14,3.50
2008,04,24,00,15,3.50
2008,04,24,00,16,3.50
2008,04,24,00,17,3.40
2008,04,24,00,18,3.40
2008,04,24,00,19,3.40
2008,04,24,00,20,3.40
2008,04,24,00,21,3.30
2008,04,24,00,22,3.30
2008,04,24,00,23,3.30
2008,04,24,00,24,3.30
2008,04,24,00,25,3.30
2008,04,24,00,26,3.30
2008,04,24,00,27,3.30
2008,04,24,00,28,3.30
2008,04,24,00,29,3.30
2008,04,24,00,30,3.30
2008,04,24,00,31,3.30
2008,04,24,00,32,3.20
2008,04,24,00,33,3.20
2008,04,24,00,34,3.20
2008,04,24,00,35,3.20
2008,04,24,00,36,3.20
2008,04,24,00,37,3.20
2008,04,24,00,38,3.10
2008,04,24,00,39,3.10
2008,04,24,00,40,3.10
2008,04,24,00,41,3.10
2008,04,24,00,42,3.10
2008,04,24,00,43,3.10
2008,04,24,00,44,3.10
2008,04,24,00,45,3.10
2008,04,24,00,46,3.00
2008,04,24,00,47,2.90
2008,04,24,00,48,2.90
2008,04,24,00,49,2.90
2008,04,24,00,50,2.90
2008,04,24,00,51,2.90
2008,04,24,00,52,2.90
2008,04,24,00,53,2.90
2008,04,24,00,54,2.90
2008,04,24,00,55,2.90
2008,04,24,00,56,2.90
2008,04,24,00,57,2.90
2008,04,24,00,58,2.80
2008,04,24,00,59,2.80
2008,04,24,01,00,2.80
2008,04,24,01,01,2.80
2008,04,24,01,02,2.80
2008,04,24,01,03,2.70
2008,04,24,01,04,2.70
2008,04,24,01,05,2.70
2008,04,24,01,06,2.70
2008,04,24,01,07,2.70
2008,04,24,01,08,2.70
2008,04,24,01,09,2.70
2008,04,24,01,10,2.70
2008,04,24,01,11,2.70
2008,04,24,01,12,2.70
2008,04,24,01,13,2.70
2008,04,24,01,14,2.70
2008,04,24,01,15,2.60
2008,04,24,01,16,2.60
2008,04,24,01,17,2.60
2008,04,24,01,18,2.60
2008,04,24,01,19,2.60
2008,04,24,01,20,2.60
2008,04,24,01,21,2.60
2008,04,24,01,22,2.60
2008,04,24,01,23,2.60
2008,04,24,01,24,2.60
2008,04,24,01,25,2.70
2008,04,24,01,26,2.70
2008,04,24,01,27,2.70
2008,04,24,01,28,2.70
2008,04,24,01,29,2.70
2008,04,24,01,30,2.70
2008,04,24,01,31,2.70
2008,04,24,01,32,2.70
2008,04,24,01,33,2.70
2008,04,24,01,34,2.70
2008,04,24,01,35,2.80
2008,04,24,01,36,2.80
2008,04,24,01,37,2.80
2008,04,24,01,38,2.80
2008,04,24,01,39,2.90
2008,04,24,01,40,2.90
2008,04,24,01,41,2.90
2008,04,24,01,42,3.10
2008,04,24,01,43,3.10
2008,04,24,01,44,3.20
2008,04,24,01,45,3.20
2008,04,24,01,46,3.30
2008,04,24,01,47,3.30
2008,04,24,01,48,3.40
2008,04,24,01,49,3.50
2008,04,24,01,50,3.50
2008,04,24,01,51,3.60
2008,04,24,01,52,3.60
2008,04,24,01,53,3.70
2008,04,24,01,54,3.80
2008,04,24,01,55,3.80
2008,04,24,01,56,3.80
2008,04,24,01,57,3.80
2008,04,24,01,58,4.00
2008,04,24,01,59,4.00
2008,04,24,02,00,4.20
2008,04,24,02,01,4.30
2008,04,24,02,02,4.40
2008,04,24,02,03,4.40
2008,04,24,02,04,4.50
2008,04,24,02,05,4.60
2008,04,24,02,06,4.60
2008,04,24,02,07,4.70
2008,04,24,02,08,4.70
2008,04,24,02,09,4.80
2008,04,24,02,10,4.90
2008,04,24,02,11,5.00
2008,04,24,02,12,5.10
2008,04,24,02,13,5.30
2008,04,24,02,14,5.40
2008,04,24,02,15,5.60
2008,04,24,02,16,5.60
2008,04,24,02,17,5.70
2008,04,24,02,18,5.70
2008,04,24,02,19,5.80
2008,04,24,02,20,5.80
2008,04,24,02,21,5.80
2008,04,24,02,22,5.90
2008,04,24,02,23,5.90
2008,04,24,02,24,5.90
2008,04,24,02,25,6.00
2008,04,24,02,26,6.10
2008,04,24,02,27,6.10
2008,04,24,02,28,6.20
2008,04,24,02,29,6.20
2008,04,24,02,30,6.20
2008,04,24,02,31,6.20
2008,04,24,02,32,6.20
2008,04,24,02,33,6.20
2008,04,24,02,34,6.20
2008,04,24,02,35,6.30
2008,04,24,02,36,6.30
2008,04,24,02,37,6.40
2008,04,24,02,38,6.40
2008,04,24,02,39,6.40
2008,04,24,02,40,6.40
2008,04,24,02,41,6.40
2008,04,24,02,42,6.40
2008,04,24,02,43,6.40
2008,04,24,02,44,6.40
2008,04,24,02,45,6.40
2008,04,24,02,46,6.40
2008,04,24,02,47,6.40
2008,04,24,02,48,6.50
2008,04,24,02,49,6.60
2008,04,24,02,50,6.60
2008,04,24,02,51,6.60
2008,04,24,02,52,6.60
2008,04,24,02,53,6.70
2008,04,24,02,54,6.80
2008,04,24,02,55,6.80
2008,04,24,02,56,6.90
2008,04,24,02,57,6.90
2008,04,24,02,58,6.90
2008,04,24,02,59,6.90
2008,04,24,03,00,7.00
2008,04,24,03,01,7.00
2008,04,24,03,02,7.00
2008,04,24,03,03,7.00
2008,04,24,03,04,7.00
2008,04,24,03,05,6.90
2008,04,24,03,06,6.90
2008,04,24,03,07,6.90
2008,04,24,03,08,6.80
2008,04,24,03,09,6.80
2008,04,24,03,10,6.80
2008,04,24,03,11,6.80
2008,04,24,03,12,6.80
2008,04,24,03,13,6.80
2008,04,24,03,14,6.80
2008,04,24,03,15,6.70
2008,04,24,03,16,6.70
2008,04,24,03,17,6.70
2008,04,24,03,18,6.70
2008,04,24,03,19,6.70
2008,04,24,03,20,6.70
2008,04,24,03,21,6.70
2008,04,24,03,22,6.80
2008,04,24,03,23,6.80
2008,04,24,03,24,6.80
2008,04,24,03,25,6.80
2008,04,24,03,26,6.80
2008,04,24,03,27,6.90
2008,04,24,03,28,6.90
2008,04,24,03,29,6.90
2008,04,24,03,30,7.00
2008,04,24,03,31,7.00
2008,04,24,03,32,7.00
2008,04,24,03,33,7.10
2008,04,24,03,34,7.10
2008,04,24,03,35,7.10
2008,04,24,03,36,7.10
2008,04,24,03,37,7.20
2008,04,24,03,38,7.20
2008,04,24,03,39,7.20
2008,04,24,03,40,7.20
2008,04,24,03,41,7.20
2008,04,24,03,42,7.20
2008,04,24,03,43,7.20
2008,04,24,03,44,7.20
2008,04,24,03,45,7.20
2008,04,24,03,46,7.20
2008,04,24,03,47,7.20
2008,04,24,03,48,7.20
2008,04,24,03,49,7.20
2008,04,24,03,50,7.20
2008,04,24,03,51,7.20
2008,04,24,03,52,7.20
2008,04,24,03,53,7.20
2008,04,24,03,54,7.20
2008,04,24,03,55,7.20
2008,04,24,03,56,7.20
2008,04,24,03,57,7.20
2008,04,24,03,58,7.20
2008,04,24,03,59,7.20
2008,04,24,04,00,7.20
2008,04,24,04,01,7.20
2008,04,24,04,02,7.20
2008,04,24,04,03,7.20
2008,04,24,04,04,7.20
2008,04,24,04,05,7.20
2008,04,24,04,06,7.20
2008,04,24,04,07,7.20
2008,04,24,04,08,7.10
2008,04,24,04,09,7.10
2008,04,24,04,10,7.10
2008,04,24,04,11,7.10
2008,04,24,04,12,7.10
2008,04,24,04,13,7.10
2008,04,24,04,14,7.10
2008,04,24,04,15,7.00
2008,04,24,04,16,7.00
2008,04,24,04,17,7.00
2008,04,24,04,18,6.90
2008,04,24,04,19,6.90
2008,04,24,04,20,6.90
2008,04,24,04,21,6.90
2008,04,24,04,22,6.90
2008,04,24,04,23,6.90
2008,04,24,04,24,6.90
2008,04,24,04,25,6.90
2008,04,24,04,26,6.80
2008,04,24,04,27,6.80
2008,04,24,04,28,6.80
2008,04,24,04,29,6.80
2008,04,24,04,30,6.80
2008,04,24,04,31,6.80
2008,04,24,04,32,6.80
2008,04,24,04,33,6.80
2008,04,24,04,34,6.80
2008,04,24,04,35,6.80
2008,04,24,04,36,6.80
2008,04,24,04,37,6.80
2008,04,24,04,38,6.80
2008,04,24,04,39,6.80
2008,04,24,04,40,6.80
2008,04,24,04,41,6.80
2008,04,24,04,42,6.80
2008,04,24,04,43,6.80
2008,04,24,04,44,6.80
2008,04,24,04,45,6.80
2008,04,24,04,46,6.80
2008,04,24,04,47,6.80
2008,04,24,04,48,6.80
2008,04,24,04,49,6.80
2008,04,24,04,50,6.80
2008,04,24,04,51,6.80
2008,04,24,04,52,6.80
2008,04,24,04,53,6.80
2008,04,24,04,54,6.80
2008,04,24,04,55,6.80
2008,04,24,04,56,6.80
2008,04,24,04,57,6.80
2008,04,24,04,58,6.80
2008,04,24,04,59,6.80
2008,04,24,05,00,6.90
2008,04,24,05,01,6.90
2008,04,24,05,02,6.90
2008,04,24,05,03,7.00
2008,04,24,05,04,7.00
2008,04,24,05,05,7.00
2008,04,24,05,06,7.00
2008,04,24,05,07,7.00
2008,04,24,05,08,7.00
2008,04,24,05,09,7.00
2008,04,24,05,10,7.00
2008,04,24,05,11,7.00
2008,04,24,05,12,7.00
2008,04,24,05,13,7.00
2008,04,24,05,14,7.00
2008,04,24,05,15,7.00
2008,04,24,05,16,7.00
2008,04,24,05,17,7.00
2008,04,24,05,18,7.00
2008,04,24,05,19,7.00
2008,04,24,05,20,7.00
2008,04,24,05,21,7.00
2008,04,24,05,22,7.00
2008,04,24,05,23,7.00
2008,04,24,05,24,7.00
2008,04,24,05,25,7.00
2008,04,24,05,26,6.90
2008,04,24,05,27,6.90
2008,04,24,05,28,6.90
2008,04,24,05,29,6.90
2008,04,24,05,30,6.90
2008,04,24,05,31,6.90
2008,04,24,05,32,6.80
2008,04,24,05,33,6.80
2008,04,24,05,34,6.80
2008,04,24,05,35,6.80
2008,04,24,05,36,6.80
2008,04,24,05,37,6.70
2008,04,24,05,38,6.70
2008,04,24,05,39,6.70
2008,04,24,05,40,6.70
2008,04,24,05,41,6.70
2008,04,24,05,42,6.70
2008,04,24,05,43,6.70
2008,04,24,05,44,6.70
2008,04,24,05,45,6.70
2008,04,24,05,46,6.70
2008,04,24,05,47,6.70
2008,04,24,05,48,6.70
2008,04,24,05,49,6.70
2008,04,24,05,50,6.70
2008,04,24,05,51,6.70
2008,04,24,05,52,6.70
2008,04,24,05,53,6.70
2008,04,24,05,54,6.70
2008,04,24,05,55,6.60
2008,04,24,05,56,6.60
2008,04,24,05,57,6.60
2008,04,24,05,58,6.60
2008,04,24,05,59,6.60
2008,04,24,06,00,6.60
2008,04,24,06,01,6.60
2008,04,24,06,02,6.60
2008,04,24,06,03,6.70
2008,04,24,06,04,6.70
2008,04,24,06,05,6.70
2008,04,24,06,06,6.70
2008,04,24,06,07,6.70
2008,04,24,06,08,6.70
2008,04,24,06,09,6.70
2008,04,24,06,10,6.80
2008,04,24,06,11,6.80
2008,04,24,06,12,6.70
2008,04,24,06,13,6.80
2008,04,24,06,14,6.80
2008,04,24,06,15,6.80
2008,04,24,06,16,6.80
2008,04,24,06,17,6.80
2008,04,24,06,18,6.80
2008,04,24,06,19,6.80
2008,04,24,06,20,6.80
2008,04,24,06,21,6.80
2008,04,24,06,22,6.80
2008,04,24,06,23,6.80
2008,04,24,06,24,6.70
2008,04,24,06,25,6.70
2008,04,24,06,26,6.80
2008,04,24,06,27,6.80
2008,04,24,06,28,6.80
2008,04,24,06,29,6.80
2008,04,24,06,30,6.80
2008,04,24,06,31,6.80
2008,04,24,06,32,6.80
2008,04,24,06,33,6.80
2008,04,24,06,34,6.80
2008,04,24,06,35,6.80
2008,04,24,06,36,6.80
2008,04,24,06,37,6.80
2008,04,24,06,38,6.80
2008,04,24,06,39,6.80
2008,04,24,06,40,6.80
2008,04,24,06,41,6.80
2008,04,24,06,42,6.80
2008,04,24,06,43,6.80
2008,04,24,06,44,6.80
2008,04,24,06,45,6.80
2008,04,24,06,46,6.80
2008,04,24,06,47,6.80
2008,04,24,06,48,6.80
2008,04,24,06,49,6.80
2008,04,24,06,50,6.80
2008,04,24,06,51,6.80
2008,04,24,06,52,6.80
2008,04,24,06,53,6.80
2008,04,24,06,54,6.80
2008,04,24,06,55,6.80
2008,04,24,06,56,6.80
2008,04,24,06,57,6.70
2008,04,24,06,58,6.70
2008,04,24,06,59,6.70
2008,04,24,07,00,6.70
2008,04,24,07,01,6.70
2008,04,24,07,02,6.70
2008,04,24,07,03,6.70
2008,04,24,07,04,6.70
2008,04,24,07,05,6.70
2008,04,24,07,06,6.70
2008,04,24,07,07,6.70
2008,04,24,07,08,6.70
2008,04,24,07,09,6.70
2008,04,24,07,10,6.70
2008,04,24,07,11,6.70
2008,04,24,07,12,6.70
2008,04,24,07,13,6.70
2008,04,24,07,14,6.70
2008,04,24,07,15,6.70
2008,04,24,07,16,6.70
2008,04,24,07,17,6.70
2008,04,24,07,18,6.70
2008,04,24,07,19,6.70
2008,04,24,07,20,6.70
2008,04,24,07,21,6.70
2008,04,24,07,22,6.70
2008,04,24,07,23,6.70
2008,04,24,07,24,6.70
2008,04,24,07,25,6.70
2008,04,24,07,26,6.80
2008,04,24,07,27,6.80
2008,04,24,07,28,6.80
2008,04,24,07,29,6.80
2008,04,24,07,30,6.80
2008,04,24,07,31,6.80
2008,04,24,07,32,6.80
2008,04,24,07,33,6.80
2008,04,24,07,34,6.80
2008,04,24,07,35,6.80
2008,04,24,07,36,6.80
2008,04,24,07,37,6.80
2008,04,24,07,38,6.80
2008,04,24,07,39,6.80
2008,04,24,07,40,6.80
2008,04,24,07,41,6.90
2008,04,24,07,42,6.90
2008,04,24,07,43,6.90
2008,04,24,07,44,6.90
2008,04,24,07,45,6.90
2008,04,24,07,46,6.90
2008,04,24,07,47,6.90
2008,04,24,07,48,6.90
2008,04,24,07,49,6.90
2008,04,24,07,50,6.90
2008,04,24,07,51,6.90
2008,04,24,07,52,6.90
2008,04,24,07,53,6.90
2008,04,24,07,54,6.90
2008,04,24,07,55,6.90
2008,04,24,07,56,6.90
2008,04,24,07,57,6.90
2008,04,24,07,58,6.90
2008,04,24,07,59,6.90
2008,04,24,08,00,6.90
2008,04,24,08,01,6.90
2008,04,24,08,02,6.90
2008,04,24,08,03,6.90
2008,04,24,08,04,6.90
2008,04,24,08,05,6.90
2008,04,24,08,06,6.90
2008,04,24,08,07,6.90
2008,04,24,08,08,6.90
2008,04,24,08,09,6.90
2008,04,24,08,10,6.90
2008,04,24,08,11,6.90
2008,04,24,08,12,6.90
2008,04,24,08,13,6.90
2008,04,24,08,14,6.90
2008,04,24,08,15,6.90
2008,04,24,08,16,6.90
2008,04,24,08,17,6.90
2008,04,24,08,18,6.90
2008,04,24,08,19,6.90
2008,04,24,08,20,6.90
2008,04,24,08,21,6.90
2008,04,24,08,22,6.90
2008,04,24,08,23,6.90
2008,04,24,08,24,6.90
2008,04,24,08,25,6.90
2008,04,24,08,26,6.90
2008,04,24,08,27,6.90
2008,04,24,08,28,6.90
2008,04,24,08,29,6.90
2008,04,24,08,30,6.90
2008,04,24,08,31,6.90
2008,04,24,08,32,6.90
2008,04,24,08,33,6.90
2008,04,24,08,34,6.90
2008,04,24,08,35,6.90
2008,04,24,08,36,7.00
2008,04,24,08,37,7.00
2008,04,24,08,38,7.00
2008,04,24,08,39,7.00
2008,04,24,08,40,7.00
2008,04,24,08,41,7.00
2008,04,24,08,42,7.00
2008,04,24,08,43,7.00
2008,04,24,08,44,7.00
2008,04,24,08,45,7.00
2008,04,24,08,46,7.10
2008,04,24,08,47,7.10
2008,04,24,08,48,7.10
2008,04,24,08,49,7.10
2008,04,24,08,50,7.10
2008,04,24,08,51,7.00
2008,04,24,08,52,7.00
2008,04,24,08,53,7.00
2008,04,24,08,54,7.00
2008,04,24,08,55,7.10
2008,04,24,08,56,7.10
2008,04,24,08,57,7.10
2008,04,24,08,58,7.00
2008,04,24,08,59,7.00
2008,04,24,09,00,7.00
2008,04,24,09,01,7.00
2008,04,24,09,02,7.00
2008,04,24,09,03,7.00
2008,04,24,09,04,7.00
2008,04,24,09,05,7.00
2008,04,24,09,06,7.00
2008,04,24,09,07,7.10
2008,04,24,09,08,7.10
2008,04,24,09,09,7.10
2008,04,24,09,10,7.10
2008,04,24,09,11,7.10
2008,04,24,09,12,7.10
2008,04,24,09,13,7.10
2008,04,24,09,14,7.10
2008,04,24,09,15,7.10
2008,04,24,09,16,7.10
2008,04,24,09,17,7.10
2008,04,24,09,18,7.10
2008,04,24,09,19,7.10
2008,04,24,09,20,7.10
2008,04,24,09,21,7.10
2008,04,24,09,22,7.10
2008,04,24,09,23,7.10
2008,04,24,09,24,7.20
2008,04,24,09,25,7.20
2008,04,24,09,26,7.20
2008,04,24,09,27,7.20
2008,04,24,09,28,7.20
2008,04,24,09,29,7.20
2008,04,24,09,30,7.20
2008,04,24,09,31,7.20
2008,04,24,09,32,7.20
2008,04,24,09,33,7.20
2008,04,24,09,34,7.20
2008,04,24,09,35,7.20
2008,04,24,09,36,7.20
2008,04,24,09,37,7.20
2008,04,24,09,38,7.20
2008,04,24,09,39,7.20
2008,04,24,09,40,7.20
2008,04,24,09,41,7.20
2008,04,24,09,42,7.20
2008,04,24,09,43,7.30
2008,04,24,09,44,7.30
2008,04,24,09,45,7.30
2008,04,24,09,46,7.30
2008,04,24,09,47,7.30
2008,04,24,09,48,7.30
2008,04,24,09,49,7.40
2008,04,24,09,50,7.40
2008,04,24,09,51,7.50
2008,04,24,09,52,7.50
2008,04,24,09,53,7.50
2008,04,24,09,54,7.50
2008,04,24,09,55,7.50
2008,04,24,09,56,7.50
2008,04,24,09,57,7.50
2008,04,24,09,58,7.50
2008,04,24,09,59,7.50
2008,04,24,10,00,7.50
2008,04,24,10,01,7.50
2008,04,24,10,02,7.60
2008,04,24,10,03,7.60
2008,04,24,10,04,7.60
2008,04,24,10,05,7.60
2008,04,24,10,06,7.70
2008,04,24,10,07,7.70
2008,04,24,10,08,7.80
2008,04,24,10,09,7.80
2008,04,24,10,10,7.80
2008,04,24,10,11,7.80
2008,04,24,10,12,7.80
2008,04,24,10,13,7.80
2008,04,24,10,14,7.80
2008,04,24,10,15,7.80
2008,04,24,10,16,7.80
2008,04,24,10,17,7.80
2008,04,24,10,18,7.80
2008,04,24,10,19,7.80
2008,04,24,10,20,7.80
2008,04,24,10,21,7.70
2008,04,24,10,22,7.70
2008,04,24,10,23,7.70
2008,04,24,10,24,7.70
2008,04,24,10,25,7.70
2008,04,24,10,26,7.70
2008,04,24,10,27,7.80
2008,04,24,10,28,7.80
2008,04,24,10,29,7.80
2008,04,24,10,30,7.80
2008,04,24,10,31,7.90
2008,04,24,10,32,7.90
2008,04,24,10,33,7.90
2008,04,24,10,34,7.90
2008,04,24,10,35,7.80
2008,04,24,10,36,7.80
2008,04,24,10,37,7.80
2008,04,24,10,38,7.90
2008,04,24,10,39,7.90
2008,04,24,10,40,7.90
2008,04,24,10,41,7.90
2008,04,24,10,42,8.00
2008,04,24,10,43,8.00
2008,04,24,10,44,8.00
2008,04,24,10,45,8.00
2008,04,24,10,46,7.90
2008,04,24,10,47,7.90
2008,04,24,10,48,8.00
2008,04,24,10,49,8.00
2008,04,24,10,50,8.00
2008,04,24,10,51,8.00
2008,04,24,10,52,8.00
2008,04,24,10,53,8.00
2008,04,24,10,54,8.10
2008,04,24,10,55,8.10
2008,04,24,10,56,8.10
2008,04,24,10,57,8.00
2008,04,24,10,58,8.00
2008,04,24,10,59,8.00
2008,04,24,11,00,8.00
2008,04,24,11,01,7.90
2008,04,24,11,02,8.00
2008,04,24,11,03,8.00
2008,04,24,11,04,8.00
2008,04,24,11,05,8.10
2008,04,24,11,06,8.10
2008,04,24,11,07,8.20
2008,04,24,11,08,8.20
2008,04,24,11,09,8.20
2008,04,24,11,10,8.20
2008,04,24,11,11,8.20
2008,04,24,11,12,8.20
2008,04,24,11,13,8.30
2008,04,24,11,14,8.30
2008,04,24,11,15,8.30
2008,04,24,11,16,8.40
2008,04,24,11,17,8.40
2008,04,24,11,18,8.40
2008,04,24,11,19,8.40
2008,04,24,11,20,8.40
2008,04,24,11,21,8.40
2008,04,24,11,22,8.40
2008,04,24,11,23,8.50
2008,04,24,11,24,8.50
2008,04,24,11,25,8.50
2008,04,24,11,26,8.50
2008,04,24,11,27,8.50
2008,04,24,11,28,8.50
2008,04,24,11,29,8.50
2008,04,24,11,30,8.50
2008,04,24,11,31,8.40
2008,04,24,11,32,8.30
2008,04,24,11,33,8.30
2008,04,24,11,34,8.20
2008,04,24,11,35,8.20
2008,04,24,11,36,8.10
2008,04,24,11,37,8.10
2008,04,24,11,38,8.10
2008,04,24,11,39,8.10
2008,04,24,11,40,8.10
2008,04,24,11,41,8.10
2008,04,24,11,42,8.20
2008,04,24,11,43,8.20
2008,04,24,11,44,8.20
2008,04,24,11,45,8.30
2008,04,24,11,46,8.30
2008,04,24,11,47,8.40
2008,04,24,11,48,8.40
2008,04,24,11,49,8.40
2008,04,24,11,50,8.50
2008,04,24,11,51,8.50
2008,04,24,11,52,8.60
2008,04,24,11,53,8.60
2008,04,24,11,54,8.70
2008,04,24,11,55,8.70
2008,04,24,11,56,8.70
2008,04,24,11,57,8.70
2008,04,24,11,58,8.70
2008,04,24,11,59,8.70
2008,04,24,12,00,8.60
2008,04,24,12,01,8.50
2008,04,24,12,02,8.50
2008,04,24,12,03,8.40
2008,04,24,12,04,8.40
2008,04,24,12,05,8.30
2008,04,24,12,06,8.30
2008,04,24,12,07,8.30
2008,04,24,12,08,8.40
2008,04,24,12,09,8.40
2008,04,24,12,10,8.50
2008,04,24,12,11,8.50
2008,04,24,12,12,8.60
2008,04,24,12,13,8.70
2008,04,24,12,14,8.70
2008,04,24,12,15,8.70
2008,04,24,12,16,8.70
2008,04,24,12,17,8.70
2008,04,24,12,18,8.70
2008,04,24,12,19,8.60
2008,04,24,12,20,8.60
2008,04,24,12,21,8.50
2008,04,24,12,22,8.50
2008,04,24,12,23,8.40
2008,04,24,12,24,8.40
2008,04,24,12,25,8.30
2008,04,24,12,26,8.30
2008,04,24,12,27,8.30
2008,04,24,12,28,8.30
2008,04,24,12,29,8.30
2008,04,24,12,30,8.20
2008,04,24,12,31,8.30
2008,04,24,12,32,8.30
2008,04,24,12,33,8.30
2008,04,24,12,34,8.30
2008,04,24,12,35,8.30
2008,04,24,12,36,8.30
2008,04,24,12,37,8.30
2008,04,24,12,38,8.30
2008,04,24,12,39,8.20
2008,04,24,12,40,8.10
2008,04,24,12,41,7.90
2008,04,24,12,42,7.80
2008,04,24,12,43,7.60
2008,04,24,12,44,7.50
2008,04,24,12,45,7.40
2008,04,24,12,46,7.40
2008,04,24,12,47,7.40
2008,04,24,12,48,7.40
2008,04,24,12,49,7.50
2008,04,24,12,50,7.50
2008,04,24,12,51,7.50
2008,04,24,12,52,7.40
2008,04,24,12,53,7.50
2008,04,24,12,54,7.50
2008,04,24,12,55,7.50
2008,04,24,12,56,7.50
2008,04,24,12,57,7.60
2008,04,24,12,58,7.60
2008,04,24,12,59,7.60
2008,04,24,13,00,7.60
2008,04,24,13,01,7.60
2008,04,24,13,02,7.60
2008,04,24,13,03,7.60
2008,04,24,13,04,7.60
2008,04,24,13,05,7.60
2008,04,24,13,06,7.60
2008,04,24,13,07,7.60
2008,04,24,13,08,7.60
2008,04,24,13,09,7.70
2008,04,24,13,10,7.70
2008,04,24,13,11,7.70
2008,04,24,13,12,7.80
2008,04,24,13,13,7.80
2008,04,24,13,14,7.80
2008,04,24,13,15,7.80
2008,04,24,13,16,7.80
2008,04,24,13,17,7.80
2008,04,24,13,18,7.80
2008,04,24,13,19,7.80
2008,04,24,13,20,7.80
2008,04,24,13,21,7.70
2008,04,24,13,22,7.70
2008,04,24,13,23,7.60
2008,04,24,13,24,7.60
2008,04,24,13,25,7.60
2008,04,24,13,26,7.60
2008,04,24,13,27,7.60
2008,04,24,13,28,7.70
2008,04,24,13,29,7.70
2008,04,24,13,30,7.70
2008,04,24,13,31,7.70
2008,04,24,13,32,7.80
2008,04,24,13,33,7.80
2008,04,24,13,34,7.80
2008,04,24,13,35,7.80
2008,04,24,13,36,7.80
2008,04,24,13,37,7.80
2008,04,24,13,38,7.80
2008,04,24,13,39,7.80
2008,04,24,13,40,7.80
2008,04,24,13,41,7.90
2008,04,24,13,42,7.90
2008,04,24,13,43,8.00
2008,04,24,13,44,8.00
2008,04,24,13,45,8.00
2008,04,24,13,46,8.00
2008,04,24,13,47,8.00
2008,04,24,13,48,8.10
2008,04,24,13,49,8.10
2008,04,24,13,50,8.20
2008,04,24,13,51,8.20
2008,04,24,13,52,8.20
2008,04,24,13,53,8.20
2008,04,24,13,54,8.20
2008,04,24,13,55,8.30
2008,04,24,13,56,8.30
2008,04,24,13,57,8.30
2008,04,24,13,58,8.40
2008,04,24,13,59,8.50
2008,04,24,14,00,8.50
2008,04,24,14,01,8.60
2008,04,24,14,02,8.70
2008,04,24,14,03,8.70
2008,04,24,14,04,8.70
2008,04,24,14,05,8.70
2008,04,24,14,06,8.70
2008,04,24,14,07,8.70
2008,04,24,14,08,8.70
2008,04,24,14,09,8.70
2008,04,24,14,10,8.70
2008,04,24,14,11,8.70
2008,04,24,14,12,8.70
2008,04,24,14,13,8.70
2008,04,24,14,14,8.80
2008,04,24,14,15,8.80
2008,04,24,14,16,8.90
2008,04,24,14,17,8.90
2008,04,24,14,18,8.80
2008,04,24,14,19,8.80
2008,04,24,14,20,8.70
2008,04,24,14,21,8.70
2008,04,24,14,22,8.70
2008,04,24,14,23,8.70
2008,04,24,14,24,8.70
2008,04,24,14,25,8.70
2008,04,24,14,26,8.70
2008,04,24,14,27,8.80
2008,04,24,14,28,8.80
2008,04,24,14,29,8.80
2008,04,24,14,30,8.80
2008,04,24,14,31,8.80
2008,04,24,14,32,8.90
2008,04,24,14,33,8.90
2008,04,24,14,34,8.90
2008,04,24,14,35,8.90
2008,04,24,14,36,8.90
2008,04,24,14,37,8.90
2008,04,24,14,38,9.00
2008,04,24,14,39,9.00
2008,04,24,14,40,8.90
2008,04,24,14,41,8.90
2008,04,24,14,42,8.90
2008,04,24,14,43,8.90
2008,04,24,14,44,9.00
2008,04,24,14,45,9.00
2008,04,24,14,46,8.90
2008,04,24,14,47,8.90
2008,04,24,14,48,8.90
2008,04,24,14,49,8.90
2008,04,24,14,50,8.90
2008,04,24,14,51,8.90
2008,04,24,14,52,8.90
2008,04,24,14,53,8.90
2008,04,24,14,54,8.90
2008,04,24,14,55,9.00
2008,04,24,14,56,9.00
2008,04,24,14,57,8.90
2008,04,24,14,58,8.90
2008,04,24,14,59,8.80
2008,04,24,15,00,8.80
2008,04,24,15,01,8.70
2008,04,24,15,02,8.70
2008,04,24,15,03,8.70
2008,04,24,15,04,8.70
2008,04,24,15,05,8.70
2008,04,24,15,06,8.70
2008,04,24,15,07,8.70
2008,04,24,15,08,8.70
2008,04,24,15,09,8.70
2008,04,24,15,10,8.70
2008,04,24,15,11,8.70
2008,04,24,15,12,8.70
2008,04,24,15,13,8.70
2008,04,24,15,14,8.70
2008,04,24,15,15,8.60
2008,04,24,15,16,8.60
2008,04,24,15,17,8.60
2008,04,24,15,18,8.50
2008,04,24,15,19,8.50
2008,04,24,15,20,8.50
2008,04,24,15,21,8.50
2008,04,24,15,22,8.50
2008,04,24,15,23,8.50
2008,04,24,15,24,8.50
2008,04,24,15,25,8.50
2008,04,24,15,26,8.40
2008,04,24,15,27,8.40
2008,04,24,15,28,8.30
2008,04,24,15,29,8.20
2008,04,24,15,30,8.20
2008,04,24,15,31,8.20
2008,04,24,15,32,8.20
2008,04,24,15,33,8.20
2008,04,24,15,34,8.10
2008,04,24,15,35,8.10
2008,04,24,15,36,8.10
2008,04,24,15,37,8.10
2008,04,24,15,38,8.10
2008,04,24,15,39,8.00
2008,04,24,15,40,7.90
2008,04,24,15,41,7.90
2008,04,24,15,42,7.90
2008,04,24,15,43,7.90
2008,04,24,15,44,7.80
2008,04,24,15,45,7.80
2008,04,24,15,46,7.80
2008,04,24,15,47,7.80
2008,04,24,15,48,7.80
2008,04,24,15,49,7.80
2008,04,24,15,50,7.80
2008,04,24,15,51,7.80
2008,04,24,15,52,7.80
2008,04,24,15,53,7.80
2008,04,24,15,54,7.80
2008,04,24,15,55,7.80
2008,04,24,15,56,7.90
2008,04,24,15,57,7.90
2008,04,24,15,58,7.90
2008,04,24,15,59,7.90
2008,04,24,16,00,7.90
2008,04,24,16,01,7.90
2008,04,24,16,02,7.90
2008,04,24,16,03,7.90
2008,04,24,16,04,7.90
2008,04,24,16,05,7.80
2008,04,24,16,06,7.80
2008,04,24,16,07,7.80
2008,04,24,16,08,7.80
2008,04,24,16,09,7.80
2008,04,24,16,10,7.80
2008,04,24,16,11,7.80
2008,04,24,16,12,7.80
2008,04,24,16,13,7.80
2008,04,24,16,14,7.80
2008,04,24,16,15,7.80
2008,04,24,16,16,7.80
2008,04,24,16,17,7.90
2008,04,24,16,18,7.90
2008,04,24,16,19,7.90
2008,04,24,16,20,7.90
2008,04,24,16,21,7.90
2008,04,24,16,22,7.90
2008,04,24,16,23,7.90
2008,04,24,16,24,7.90
2008,04,24,16,25,7.90
2008,04,24,16,26,8.00
2008,04,24,16,27,8.00
2008,04,24,16,28,8.00
2008,04,24,16,29,8.00
2008,04,24,16,30,8.00
2008,04,24,16,31,8.00
2008,04,24,16,32,8.10
2008,04,24,16,33,8.10
2008,04,24,16,34,8.10
2008,04,24,16,35,8.10
2008,04,24,16,36,8.20
2008,04,24,16,37,8.20
2008,04,24,16,38,8.20
2008,04,24,16,39,8.20
2008,04,24,16,40,8.20
2008,04,24,16,41,8.20
2008,04,24,16,42,8.20
2008,04,24,16,43,8.20
2008,04,24,16,44,8.20
2008,04,24,16,45,8.20
2008,04,24,16,46,8.20
2008,04,24,16,47,8.20
2008,04,24,16,48,8.20
2008,04,24,16,49,8.20
2008,04,24,16,50,8.20
2008,04,24,16,51,8.20
2008,04,24,16,52,8.10
2008,04,24,16,53,8.10
2008,04,24,16,54,8.10
2008,04,24,16,55,8.10
2008,04,24,16,56,8.00
2008,04,24,16,57,8.00
2008,04,24,16,58,8.00
2008,04,24,16,59,7.90
2008,04,24,17,00,7.90
2008,04,24,17,01,7.90
2008,04,24,17,02,7.80
2008,04,24,17,03,7.80
2008,04,24,17,04,7.80
2008,04,24,17,05,7.80
2008,04,24,17,06,7.80
2008,04,24,17,07,7.80
2008,04,24,17,08,7.80
2008,04,24,17,09,7.70
2008,04,24,17,10,7.70
2008,04,24,17,11,7.70
2008,04,24,17,12,7.70
2008,04,24,17,13,7.70
2008,04,24,17,14,7.70
2008,04,24,17,15,7.70
2008,04,24,17,16,7.70
2008,04,24,17,17,7.70
2008,04,24,17,18,7.70
2008,04,24,17,19,7.70
2008,04,24,17,20,7.70
2008,04,24,17,21,7.80
2008,04,24,17,22,7.80
2008,04,24,17,23,7.80
2008,04,24,17,24,7.80
2008,04,24,17,25,7.80
2008,04,24,17,26,7.80
2008,04,24,17,27,7.80
2008,04,24,17,28,7.80
2008,04,24,17,29,7.80
2008,04,24,17,30,7.80
2008,04,24,17,31,7.80
2008,04,24,17,32,7.80
2008,04,24,17,33,7.80
2008,04,24,17,34,7.80
2008,04,24,17,35,7.90
2008,04,24,17,36,7.90
2008,04,24,17,37,7.90
2008,04,24,17,38,7.90
2008,04,24,17,39,7.90
2008,04,24,17,40,7.90
2008,04,24,17,41,8.00
2008,04,24,17,42,8.00
2008,04,24,17,43,8.00
2008,04,24,17,44,8.00
2008,04,24,17,45,8.00
2008,04,24,17,46,7.90
2008,04,24,17,47,7.90
2008,04,24,17,48,7.90
2008,04,24,17,49,7.90
2008,04,24,17,50,7.90
2008,04,24,17,51,7.90
2008,04,24,17,52,7.90
2008,04,24,17,53,7.90
2008,04,24,17,54,7.90
2008,04,24,17,55,7.90
2008,04,24,17,56,7.90
2008,04,24,17,57,7.90
2008,04,24,17,58,7.90
2008,04,24,17,59,7.90
2008,04,24,18,00,7.90
2008,04,24,18,01,7.90
2008,04,24,18,02,7.90
2008,04,24,18,03,7.90
2008,04,24,18,04,7.90
2008,04,24,18,05,7.90
2008,04,24,18,06,7.90